Location: Lobstick
(53.6000°N, 115.1667°W)
Time: 14:49:35
(UTC+00:00)

Gurwin Techsat 1B - Pass Details

Date: 04 December 2023
Orbit: 810 x 813 km, 98.9° (Epoch: 28 February)

Event Time Altitude Azimuth Distance (km) Brightness Sun altitude
Rises 12:00:35 0° 13° (NNE) 3,351 12.0 -31.0°
Reaches altitude 10° 12:03:00 10° 8° (N) 2,415 11.2 -30.7°
Enters shadow 12:04:04 16° 4° (N) 2,020 10.7 -30.5°
